User: anonymous   Login
Location: Campillo
(40.8621°N, 4.2488°W)
Time: 09:20:15
(UTC+00:00)
Language:

Cosmos 1500 - Orbit

View from above orbital plane
View from above orbital plane
View from above satellite
View from above satellite

Ground track
Ground track

The orbit data is extracted from the following two-line orbital elements,

1 14372U 83099A   21216.69748138  .00000830  00000-0  37553-4 0  9992
2 14372  82.5153 289.7101 0013637 227.2370 132.7718 15.19425486 66493
Epoch (UTC): 04 August 2021 16:44:22
Eccentricity: 0.0013637
inclination: 82.5153°
perigee height: 498 km
apogee height: 517 km
right ascension of ascending node: 289.7101°
argument of perigee: 227.2370°
revolutions per day: 15.19425486
mean anomaly at epoch: 132.7718°
orbit number at epoch: 6649

The dashed part of the orbit path shows where the satellite is in the earth's shadow,  

DLR